Weather History for Resolute, NU

Change the Weather History Date:

Tuesday, April 23, 2013

  Actual Average Record
Temperature  
Mean Temperature -5 °F -  
Max Temperature 1 °F 3 °F 19 °F (2003)
Min Temperature -11 °F -4 °F -14 °F (1999)
Degree Days  
Heating Degree Days 70    
Moisture  
Dew Point -13 °F    
Average Humidity 62    
Maximum Humidity 78    
Minimum Humidity 37    
Precipitation  
Precipitation 0.00 in - - ()
Sea Level Pressure  
Sea Level Pressure 29.92 in    
Wind  
Wind Speed 10 mph ()    
Max Wind Speed 21 mph    
Max Gust Speed 18 mph    
Visibility 12.9 miles    
Events Snow    
Averages and records for this station are not official NWS values.
T = Trace of Precipitation, MM = Missing Value Source: Averaged Metar Reports

Daily Weather History Graph

Daily Weather History Graph

Search for Another Location

Airport:

Trip Planner

Search our weather history database for the weather conditions in past years. The results will help you decide how hot, cold, wet, or windy it might be!

Date:

Astronomy

Apr. 23, 2013 Rise Set
Actual Time 3:13 AM CDT 11:32 PM CDT
Civil Twilight Sun does not rise Sun does not rise
Nautical Twilight Sun does not rise Sun does not rise
Astronomical Twilight Sun does not rise Sun does not rise
Moon 7:30 PM CDT (4/23) 4:10 AM CDT (4/23)
Length of Visible Light 24h 00m
Length of Day
20h 18m
Waxing Gibbous, 94% of the Moon is Illuminated
Apr 23
Waxing Gibbous
Apr 25
Full
May 2
Last Quarter
May 9
New
May 17
First Quarter

Hourly Weather History & Observations

Time (CDT) Temp. Windchill Dew Point Humidity Pressure Visibility Wind Dir Wind Speed Gust Speed Precip Events Conditions
12:00 AM -7.6 °F -28.3 °F -16.6 °F 65% 29.82 in 10.0 mi East 13.8 mph - N/A Snow Low Drifting Snow
1:00 AM -7 °F - -15 °F 52% 29.82 in 15 mi East 18.4 mph - - Snow Snow
1:00 AM -7.6 °F -27.5 °F -14.8 °F 71% 29.82 in 15.0 mi East 12.7 mph 18.4 mph N/A Snow Low Drifting Snow
2:00 AM -9.4 °F -33.5 °F -18.4 °F 65% 29.84 in 15.0 mi East 18.4 mph - N/A Snow Low Drifting Snow
3:00 AM -7.6 °F -28.3 °F -16.6 °F 65% 29.86 in 15.0 mi East 13.8 mph - N/A   Partly Cloudy
4:00 AM -5.8 °F -23.4 °F -16.6 °F 60% 29.87 in 15.0 mi East 10.4 mph - N/A   Partly Cloudy
5:00 AM -9.4 °F -31.4 °F -20.2 °F 59% 29.89 in 15.0 mi ENE 15.0 mph - N/A   Partly Cloudy
6:00 AM -7.6 °F -27.5 °F -16.6 °F 65% 29.90 in 15.0 mi NE 12.7 mph - N/A   Partly Cloudy
7:00 AM -8 °F - -17 °F 49% 29.91 in 15 mi NE 12.7 mph - - Snow Snow
7:00 AM -7.6 °F -27.5 °F -16.6 °F 65% 29.91 in 15.0 mi NE 12.7 mph - N/A   Partly Cloudy
8:00 AM -4.0 °F -27.6 °F -14.8 °F 60% 29.91 in 15.0 mi NE 20.7 mph - N/A   Partly Cloudy
9:00 AM -4.0 °F -16.3 °F -14.8 °F 60% 29.93 in 15.0 mi ENE 5.8 mph - N/A   Partly Cloudy
9:50 AM - - - N/A% - 15.0 mi NE 4.6 mph - N/A   Partly Cloudy
10:00 AM -2.2 °F - -13.0 °F 60% 29.93 in 15.0 mi NE 2.3 mph - N/A   Partly Cloudy
11:00 AM -0.4 °F -8.3 °F -13.0 °F 55% 29.94 in 15.0 mi NE 3.5 mph - N/A   Partly Cloudy
12:00 PM -0.4 °F -8.3 °F -13.0 °F 55% 29.94 in 15.0 mi NE 3.5 mph - N/A   Scattered Clouds
1:00 PM -1 °F - -14 °F 37% 29.95 in 15 mi North 4.6 mph - -   Partly Cloudy
1:00 PM -0.4 °F -10.4 °F -14.8 °F 51% 29.95 in 15.0 mi North 4.6 mph - N/A   Scattered Clouds
2:00 PM -0.4 °F -10.4 °F -13.0 °F 55% 29.96 in 15.0 mi NNW 4.6 mph - N/A   Mostly Cloudy
3:00 PM -0.4 °F -10.4 °F -13.0 °F 55% 29.96 in 15.0 mi NNE 4.6 mph - N/A   Mostly Cloudy
3:43 PM - - - N/A% - 10.0 mi NE 6.9 mph - N/A Snow Light Snow Grains
4:00 PM -0.4 °F -8.3 °F -5.8 °F 78% 29.96 in 8.0 mi NE 3.5 mph - N/A Snow Light Snow Grains
5:00 PM -0.4 °F -10.4 °F -11.2 °F 60% 29.97 in 8.0 mi NE 4.6 mph - N/A Snow Light Snow Grains
5:30 PM - - - N/A% - 5.0 mi NE 5.8 mph - N/A   Unknown
6:00 PM -0.4 °F -12.0 °F -5.8 °F 78% 29.97 in 8.0 mi NE 5.8 mph - N/A Snow Light Snow
7:00 PM -1 °F - -7 °F 67% 29.97 in 10 mi NE 5.8 mph - - Snow Light Snow
7:00 PM -0.4 °F -12.0 °F -5.8 °F 78% 29.97 in 10.0 mi NE 5.8 mph - N/A Snow Light Snow
8:00 PM -2.2 °F -16.8 °F -9.4 °F 71% 29.97 in 8.0 mi ENE 8.1 mph - N/A Snow Light Snow
8:22 PM - - - N/A% - 10.0 mi ENE 9.2 mph - N/A   Overcast
9:00 PM -2.2 °F -18.0 °F -9.4 °F 71% 29.96 in 10.0 mi ENE 9.2 mph - N/A   Overcast
10:00 PM -4.0 °F -21.2 °F -11.2 °F 71% 29.95 in 15.0 mi ENE 10.4 mph - N/A   Overcast
11:00 PM -4.0 °F -23.7 °F -11.2 °F 71% 29.94 in 15.0 mi NE 13.8 mph - N/A   Overcast